Location: Aranbee
(34.0885°N, 118.2342°W)
Time: 23:23:17
(UTC+00:00)

A-11 Canister half - Pass Details

Date: 03 August 2021
Orbit: 1515 x 1685 km, 47.2° (Epoch: 22 September)

Event Time Altitude Azimuth Distance (km) Brightness Sun altitude
Rises 08:39:05 0° 297° (WNW) 4,936 11.8 -37.6°
Reaches altitude 10° 08:42:53 10° 286° (WNW) 3,949 11.1 -37.5°
Enters shadow 08:45:29 17° 274° (W) 3,383 10.6 -37.3°
